カタログに戻る

COSMOS 2456

GLONASS

運用中ナビゲーションMEO
NORAD 36111·PAYLOAD·🇷🇺 Russia

打ち上げ Dec 14, 2009 から Baikonur Cosmodrome

Loading…

次のパス (今後24時間)

TLE

最新Source: CelesTrak SupGP

元期: Sep 12, 2026, 23:59 UTC

1 36111C 09070A   26255.99979167  .00000000  00000+0  00000+0 0  2558
2 36111  65.0678  67.9789 0001443 347.6548 315.8235  2.13103838    18

AllMySatでCOSMOS 2456をリアルタイム追跡

Download on the App Store